Spokane, WA

3:44 PM PDT on July 26, 2016 (GMT -0700)
Spokane International

Weather History for KGEG - April, 2013

Change the Weather History Date:

Monday, April 29, 2013

  Actual Average Record
Temperature  
Mean Temperature 45 °F 50 °F  
Max Temperature 56 °F 61 °F 90 °F (1926)
Min Temperature 33 °F 39 °F 25 °F (1954)
Degree Days  
Heating Degree Days 20 15  
Month to date heating degree days 536 526  
Since 1 July heating degree days 5803 6122  
Cooling Degree Days 0 0  
Month to date cooling degree days 0 0  
Year to date cooling degree days 0 0  
Moisture  
Dew Point 20 °F    
Average Humidity 43    
Maximum Humidity 70    
Minimum Humidity 16    
Precipitation  
Precipitation 0.00 in 0.03 in 0.58 in (1948)
Month to date precipitation 0.94 1.24  
Year to date precipitation 4.13 5.97  
Snow  
Snow 0.00 in 0.00 in 0.40 in (1969)
Month to date snowfall T 1.0  
Since 1 July snowfall 43.5 44.8  
Snow Depth 0.00 in    
Sea Level Pressure  
Sea Level Pressure 29.80 in    
Wind  
Wind Speed 20 mph (West)    
Max Wind Speed 33 mph    
Max Gust Speed 52 mph    
Visibility 10 miles    
Events      
T = Trace of Precipitation, MM = Missing Value Source: NWS Daily Summary

Daily Weather History Graph

Daily Weather History Graph

Search for Another Location

Airport or City:

Trip Planner

Search our weather history database for the weather conditions in past years. The results will help you decide how hot, cold, wet, or windy it might be!

Date:

Astronomy

Apr. 29, 2013 Rise Set
Actual Time 5:35 AM PDT 8:00 PM PDT
Civil Twilight 5:01 AM PDT 8:34 PM PDT
Nautical Twilight 4:18 AM PDT 9:17 PM PDT
Astronomical Twilight 3:29 AM PDT 10:06 PM PDT
Moon No Moon Rise 8:54 AM PDT (4/29)
Length of Visible Light 15h 32m
Length of Day
14h 24m
Waning Gibbous, 79% of the Moon is Illuminated
Apr 29
Waning Gibbous
May 2
Last Quarter
May 9
New
May 17
First Quarter
May 24
Full

Hourly Weather History & Observations

Time (PDT) Temp. Windchill Dew Point Humidity Pressure Visibility Wind Dir Wind Speed Gust Speed Precip Events Conditions
12:53 AM 46.9 °F - 28.0 °F 48% 29.83 in 10.0 mi SW 18.4 mph - N/A   Overcast
1:53 AM 46.9 °F - 28.9 °F 50% 29.81 in 10.0 mi SSW 18.4 mph - N/A   Overcast
2:53 AM 46.0 °F 39.6 °F 30.0 °F 54% 29.78 in 10.0 mi SW 15.0 mph 24.2 mph N/A   Overcast
3:53 AM 43.0 °F 36.4 °F 30.9 °F 62% 29.75 in 10.0 mi SSW 12.7 mph - N/A   Scattered Clouds
4:53 AM 43.0 °F 35.1 °F 33.1 °F 68% 29.73 in 10.0 mi SW 17.3 mph - N/A   Scattered Clouds
5:53 AM 44.1 °F 34.8 °F 34.0 °F 68% 29.71 in 10.0 mi SW 25.3 mph 29.9 mph N/A   Mostly Cloudy
6:53 AM 45.0 °F 35.6 °F 36.0 °F 71% 29.71 in 10.0 mi SW 27.6 mph 34.5 mph N/A   Scattered Clouds
7:53 AM 46.9 °F - 32.0 °F 56% 29.72 in 10.0 mi WSW 31.1 mph 36.8 mph N/A   Partly Cloudy
8:53 AM 48.9 °F - 24.1 °F 38% 29.72 in 10.0 mi WSW 27.6 mph 40.3 mph N/A   Partly Cloudy
9:53 AM 51.1 °F - 10.9 °F 20% 29.73 in 10.0 mi West 26.5 mph 41.4 mph N/A   Partly Cloudy
10:53 AM 52.0 °F - 12.0 °F 20% 29.75 in 10.0 mi West 26.5 mph 38.0 mph N/A   Partly Cloudy
11:53 AM 53.1 °F - 15.1 °F 22% 29.77 in 10.0 mi West 26.5 mph 36.8 mph N/A   Partly Cloudy
12:53 PM 53.1 °F - 12.0 °F 20% 29.76 in 10.0 mi West 26.5 mph 40.3 mph N/A   Partly Cloudy
1:53 PM 52.0 °F - 12.0 °F 20% 29.78 in 10.0 mi West 29.9 mph 40.3 mph N/A   Scattered Clouds
2:53 PM 55.0 °F - 10.9 °F 17% 29.79 in 10.0 mi West 28.8 mph 35.7 mph N/A   Mostly Cloudy
3:53 PM 51.1 °F - 15.1 °F 24% 29.81 in 10.0 mi NW 21.9 mph 28.8 mph N/A   Mostly Cloudy
4:53 PM 53.1 °F - 10.0 °F 18% 29.83 in 10.0 mi WNW 25.3 mph 32.2 mph N/A   Mostly Cloudy
5:53 PM 51.1 °F - 12.0 °F 21% 29.85 in 10.0 mi NW 17.3 mph 24.2 mph N/A   Mostly Cloudy
6:53 PM 48.0 °F - 15.1 °F 27% 29.86 in 10.0 mi NW 16.1 mph 20.7 mph N/A   Mostly Cloudy
7:53 PM 46.0 °F 39.3 °F 15.1 °F 29% 29.88 in 10.0 mi WNW 16.1 mph 24.2 mph N/A   Scattered Clouds
8:53 PM 44.1 °F 39.0 °F 17.1 °F 34% 29.92 in 10.0 mi NW 9.2 mph - N/A   Mostly Cloudy
9:53 PM 39.0 °F 31.8 °F 17.1 °F 41% 29.93 in 10.0 mi WSW 11.5 mph - N/A   Scattered Clouds
10:53 PM 36.0 °F 28.0 °F 18.0 °F 48% 29.94 in 10.0 mi WSW 11.5 mph - N/A   Scattered Clouds
11:53 PM 36.0 °F 28.5 °F 18.0 °F 48% 29.95 in 10.0 mi WSW 10.4 mph - N/A   Mostly Cloudy